Location: Unspecified
(35.6961°N, 0.0000°E)
Time: 16:23:26
(UTC+00:00)

deb Explorer IX - Visible Passes

Search period start: 20 May 2019 00:00
Search period end: 30 May 2019 00:00
Orbit: 538 x 1115 km, 38.8° (Epoch: 20 May)

Date Brightness Start Highest point End Pass type
(mag) Time Alt. Az. Time Alt. Az. Time Alt. Az.
20 May ? 01:48:47 11° E 01:48:47 11° E 01:49:08 10° E visible
20 May ? 03:30:10 26° WSW 03:32:28 82° SSE 03:37:01 10° ENE visible
21 May ? 03:09:27 40° WSW 03:10:52 83° SSE 03:15:18 10° ENE visible
22 May ? 02:48:43 65° WSW 02:49:16 85° SSE 02:53:36 10° ENE visible
23 May ? 02:27:58 77° E 02:27:58 77° E 02:31:55 10° ENE visible
23 May ? 04:10:37 10° W 04:14:42 56° N 04:19:14 10° E visible
24 May ? 02:07:12 47° ENE 02:07:12 47° ENE 02:10:15 10° ENE visible
24 May ? 03:49:04 10° W 03:53:05 55° N 03:57:29 10° E visible
25 May ? 01:46:27 30° ENE 01:46:27 30° ENE 01:48:37 10° ENE visible
25 May ? 03:27:49 12° WNW 03:31:30 55° N 03:35:47 10° E visible
26 May ? 01:25:42 19° ENE 01:25:42 19° ENE 01:26:59 10° ENE visible
26 May ? 03:07:05 18° WNW 03:09:54 54° N 03:14:06 10° E visible
27 May ? 01:05:00 12° ENE 01:05:00 12° ENE 01:05:22 10° ENE visible
27 May ? 02:46:22 27° WNW 02:48:19 54° N 02:52:25 10° E visible
28 May ? 02:25:43 41° NW 02:26:44 54° N 02:30:46 10° E visible
28 May ? 04:09:37 10° WNW 04:13:42 84° SSW 04:18:07 10° ESE visible
29 May ? 02:05:10 54° N 02:05:10 54° N 02:09:09 10° E visible
29 May ? 03:48:02 10° WNW 03:52:05 83° SSW 03:56:24 10° ESE visible
